Temperature
16 16 16 16 16 17 18 19 21 20 20 20 20 20 19 18 17 15 13 13 14 14 15 15 15 15 15 15 15 15 15 15 15 15 15 15 15 15 15 15 14 14 14 14 14 14 14 14 14
15 15 16 16 16 17 18 19 19 19 19 19 19 19 19 16 14 13 13 13 13 14 14 14 15 15 15 14 15 15 15 15 15 15 15 15 15 15 15 14 14 14 14 14 14 14 14 14 14
15 15 16 16 17 17 18 19 19 19 19 18 18 17 16 15 13 13 12 13 13 13 14 14 14 14 14 14 14 14 14 14 15 15 15 14 14 14 14 14 14 14 14 14 14 14 14 14 14
14 15 16 16 16 17 18 18 18 18 18 18 17 16 14 13 12 12 12 13 13 13 13 14 14 14 14 14 14 14 14 14 14 14 14 14 14 14 14 14 14 14 14 14 14 14 14 14 14
14 15 15 15 16 17 18 18 18 18 18 17 16 15 13 12 12 12 12 12 12 13 13 13 13 14 14 14 14 14 14 14 14 14 14 14 14 14 14 14 14 14 14 14 14 14 14 14 14
14 16 15 15 16 17 17 17 18 17 17 16 15 15 12 11 12 12 12 12 12 12 13 13 13 13 13 14 14 14 14 14 14 14 14 14 14 14 13 13 13 13 13 14 13 13 13 13 13
14 14 15 16 16 16 16 16 16 16 15 14 14 14 12 11 11 11 11 11 11 11 12 12 12 13 13 13 13 13 13 13 13 13 13 13 13 13 13 13 13 13 13 13 13 13 13 13 13
13 14 15 15 15 15 15 15 14 14 13 13 13 13 11 10 10 11 11 11 11 11 11 12 12 12 12 13 13 13 13 13 13 13 13 13 13 13 13 13 13 13 13 13 13 13 13 13 13
13 12 13 14 14 14 14 13 13 12 12 11 11 10 10 10 10 10 10 10 10 10 11 11 11 12 12 12 12 12 12 12 12 12 12 12 12 12 12 12 12 12 12 12 12 12 13 12 12
12 11 12 13 13 12 12 12 12 11 11 11 10 9 9 9 9 9 9 9 9 10 10 10 11 11 11 12 12 12 12 12 12 12 12 12 12 12 12 12 12 12 12 12 12 12 12 12 12
11 11 12 12 12 11 11 11 11 11 10 10 9 8 8 8 8 8 8 8 9 9 9 10 10 11 11 11 11 11 12 12 11 11 12 12 12 12 12 12 11 12 11 11 11 11 11 11 11
11 10 11 11 10 10 10 10 9 9 9 8 8 8 8 7 7 7 8 8 8 8 9 9 10 10 10 10 11 11 11 11 11 11 11 11 11 11 11 11 11 11 11 11 11 11 11 11 11
10 10 10 10 9 9 9 9 9 8 8 8 8 7 7 7 7 7 7 7 8 8 8 9 9 9 10 10 10 10 10 11 11 11 11 11 11 11 11 11 11 11 11 11 11 10 10 11 11
10 9 9 9 9 9 8 8 8 8 7 7 7 7 6 6 6 7 7 7 7 7 8 8 8 9 9 9 9 10 10 10 10 10 10 10 10 10 10 10 10 10 10 10 10 10 10 10 10
9 9 8 9 9 9 8 7 7 7 7 7 6 6 6 6 6 6 6 6 7 7 7 7 8 8 8 9 9 9 9 9 10 10 10 10 10 10 10 10 10 10 10 10 10 10 10 10 10
9 9 8 9 9 9 7 7 8 7 7 7 6 6 6 5 5 5 6 6 6 6 6 7 7 7 8 8 8 8 9 9 9 9 9 9 9 9 10 10 10 10 10 10 10 10 10 10 10
8 7 8 8 9 8 7 6 7 7 7 6 6 5 5 5 5 5 5 5 6 6 6 6 7 7 7 7 8 8 8 8 9 9 9 9 9 9 9 9 9 9 9 9 9 9 9 9 9
7 7 8 7 8 8 7 6 6 6 6 6 5 5 5 4 4 4 5 5 5 5 5 6 6 6 6 7 7 7 8 8 8 8 8 8 8 8 8 8 9 9 9 9 9 9 9 9 9
7 7 7 7 8 7 6 6 6 6 5 5 5 4 4 4 4 4 4 4 4 5 5 5 5 6 6 6 6 7 7 7 7 7 8 8 8 8 8 8 8 8 8 8 8 8 8 8 8
7 6 6 6 7 6 6 6 5 5 4 4 4 4 4 4 3 3 3 4 4 4 4 5 5 5 5 6 6 6 6 6 6 7 7 7 7 7 8 8 8 8 8 8 8 8 8 8 8
6 6 5 5 6 6 6 5 5 5 4 4 3 3 3 3 3 3 3 3 3 3 4 4 4 5 5 5 5 5 5 6 6 6 6 6 7 7 7 7 7 7 7 7 7 7 7 7 7
5 6 6 5 4 4 5 4 5 4 3 3 3 2 2 2 2 2 2 2 2 3 3 3 4 4 4 5 5 5 5 5 5 5 6 6 6 6 7 7 7 7 7 7 7 7 7 7 7
4 5 5 5 4 4 4 4 4 4 3 2 2 2 1 1 1 1 1 1 2 2 2 3 3 3 4 4 4 4 4 5 5 5 5 5 6 6 6 6 6 6 6 6 6 6 6 6 6
5 4 5 4 4 3 4 4 4 3 3 2 2 1 1 1 1 1 1 1 1 1 2 2 2 2 3 3 3 4 4 4 4 4 5 5 5 5 5 6 6 6 6 6 6 6 6 6 6
4 3 3 3 3 4 5 4 3 3 2 2 1 1 0 0 0 0 0 0 0 1 1 1 2 2 2 2 3 3 4 4 4 4 4 4 5 5 5 5 5 6 6 5 5 5 6 5 5
3 3 2 3 3 4 4 3 2 2 2 1 1 0 -0 -0 -0 -0 -0 -0 -0 0 0 1 1 1 1 2 2 2 3 3 3 4 4 4 4 4 5 5 5 5 5 5 5 5 5 5 5
3 2 3 2 2 2 3 3 2 2 1 0 0 -0 -1 -1 -1 -1 -0 -0 -0 -0 -0 0 0 0 1 1 1 1 2 2 3 3 3 3 4 4 4 4 4 4 4 4 4 4 5 4 5
2 2 2 2 2 2 3 4 2 0 -0 -0 -1 -1 -1 -1 -1 -1 -1 -1 -1 -1 -0 -0 -0 -0 0 1 1 1 1 2 2 2 2 3 3 3 3 4 4 4 4 4 4 4 4 4 4
1 1 1 2 2 2 2 2 1 0 -0 -1 -1 -1 -1 -1 -1 -1 -1 -1 -1 -1 -1 -1 -1 -1 -0 -0 0 0 1 1 1 1 2 2 2 3 3 3 3 3 3 3 3 3 3 3 3
1 0 0 0 1 1 1 1 1 0 -0 -0 -1 -1 -1 -2 -2 -2 -2 -2 -1 -1 -1 -1 -1 -1 -1 -1 -0 -0 0 0 1 1 1 1 2 2 2 2 2 2 2 2 2 2 3 3 3
Wind_Speed
14 12 6 2 3 5 8 5 2 1 1 2 4 4 4 5 5 6 3 6 6 5 6 6 6 6 6 7 8 9 10 10 10 10 10 10 11 11 11 12 13 13 14 15 16 16 17 17 17
12 7 4 3 4 7 6 5 2 1 2 3 4 4 4 6 6 6 4 6 6 6 6 5 6 6 6 6 8 9 9 9 10 10 10 11 10 11 11 12 13 14 14 15 16 16 16 16 16
9 6 3 3 4 6 5 1 3 2 3 3 3 4 4 4 5 4 4 5 6 7 7 6 7 6 6 6 7 9 9 9 9 9 10 10 10 11 11 12 13 14 14 15 15 15 16 15 14
4 3 4 4 8 7 5 1 3 2 3 2 2 4 4 6 4 5 5 6 6 7 8 7 7 7 6 6 7 8 9 9 9 9 9 9 10 11 12 13 13 14 14 14 15 15 14 14 13
3 3 5 6 9 8 3 2 1 0 2 3 2 2 3 5 8 7 6 6 6 6 8 7 8 8 8 7 7 7 8 9 9 8 9 9 10 10 12 12 13 13 14 14 14 14 13 13 12
3 3 5 8 8 6 1 2 1 1 1 2 1 0 4 6 7 6 5 5 6 6 7 7 9 9 9 8 7 7 7 8 8 8 8 9 9 10 11 12 13 13 13 13 13 13 13 12 11
3 3 6 7 7 5 2 1 1 2 1 2 2 1 4 6 6 5 5 5 6 8 8 7 8 7 8 8 8 8 8 7 8 8 7 8 9 10 11 13 13 13 12 12 12 12 12 11 9
3 3 5 6 6 4 2 3 3 5 3 5 5 2 2 3 4 4 4 5 6 7 7 7 7 7 6 6 7 8 8 7 7 8 8 8 9 10 11 12 12 12 12 12 12 12 11 11 9
4 3 5 4 4 2 4 2 3 3 2 2 4 5 4 5 4 4 4 5 5 6 6 6 6 6 6 5 5 7 7 7 6 7 8 9 8 8 10 11 12 12 12 12 12 11 11 10 8
2 3 3 3 3 3 3 3 2 1 2 1 3 5 5 4 3 3 3 3 4 4 4 5 5 6 6 5 5 5 5 6 6 5 6 6 6 7 9 11 12 12 12 12 11 10 9 8 5
1 2 3 3 4 3 3 3 3 1 2 2 2 3 3 3 3 3 2 2 2 3 3 4 5 6 5 5 4 4 4 4 5 6 5 5 6 7 8 8 9 10 10 9 9 8 7 6 5
1 2 3 2 3 3 3 2 3 2 1 3 4 3 2 2 2 2 3 3 3 3 3 3 5 4 5 5 4 4 4 4 4 5 5 6 5 5 5 5 6 7 7 7 6 5 5 5 5
2 2 1 1 2 2 2 2 3 3 2 2 2 2 2 1 2 3 3 2 2 2 3 3 4 4 4 4 3 4 4 4 4 5 5 5 5 3 4 4 4 4 5 5 4 3 4 4 5
0 1 2 3 3 2 2 4 3 3 0 0 0 1 1 2 2 3 3 3 3 2 2 2 3 4 4 3 3 3 3 4 4 5 5 5 5 4 4 3 3 3 4 4 4 4 4 4 5
3 3 3 4 3 2 1 4 5 3 2 2 1 0 2 2 3 2 2 2 3 3 2 1 2 4 4 3 3 3 3 4 4 4 5 5 5 4 4 3 3 3 4 4 4 5 5 4 4
5 4 3 2 3 2 1 5 1 2 2 2 1 1 1 2 2 2 2 2 3 3 2 1 2 3 3 3 3 3 3 4 4 4 4 5 5 5 4 3 3 4 5 4 3 3 3 3 3
2 4 5 3 2 1 3 5 1 1 1 1 1 1 0 2 3 3 3 2 2 3 3 2 1 1 2 2 2 2 2 3 3 4 4 4 4 4 4 3 3 5 4 3 3 3 3 3 3
4 5 6 5 2 2 4 6 3 1 1 1 1 1 0 1 2 2 2 2 2 2 3 3 2 1 1 1 2 1 2 3 3 4 4 4 3 3 4 3 4 4 3 2 3 3 3 3 3
6 6 8 6 3 4 6 7 5 2 2 2 1 1 1 1 1 2 1 2 2 3 3 2 3 2 1 1 1 1 1 2 2 3 4 4 3 3 3 3 3 3 2 3 3 3 3 2 3
5 6 7 5 3 4 7 8 4 3 3 2 0 1 1 2 2 3 3 2 2 2 2 2 2 2 1 1 1 1 1 1 1 2 3 3 3 3 3 3 2 2 3 3 3 3 2 2 2
5 4 5 7 6 5 6 6 3 1 1 1 1 1 1 1 1 2 3 3 2 1 2 2 2 2 2 1 1 1 2 1 1 1 1 2 2 2 3 3 3 3 3 3 3 3 2 3 1
5 4 6 7 5 4 3 4 4 1 0 1 1 1 2 2 2 3 3 4 3 3 3 2 2 2 2 1 1 3 2 2 1 1 1 1 2 2 2 3 2 2 2 3 2 2 1 3 3
5 7 8 7 6 5 4 4 4 2 2 2 1 1 2 2 3 3 4 3 3 3 3 3 3 2 2 1 1 2 2 1 0 1 2 1 1 2 2 2 2 2 2 2 2 2 2 1 2
6 6 6 4 3 4 5 4 4 1 2 1 1 1 1 2 3 4 4 4 4 4 4 4 4 3 2 1 1 2 2 1 1 1 1 1 1 1 2 1 1 2 2 2 2 2 2 1 1
4 4 3 2 2 4 2 3 3 1 3 2 1 1 2 2 3 3 3 4 4 4 4 4 4 4 3 2 1 1 2 2 2 1 1 1 1 0 0 1 1 1 1 1 1 2 2 2 1
4 2 0 3 4 4 3 3 2 3 5 5 3 2 3 3 3 3 3 3 3 4 4 4 4 3 3 3 2 1 0 1 1 1 1 2 2 1 1 0 0 1 1 1 2 2 1 1 1
3 1 1 2 5 4 4 3 1 4 5 5 4 3 3 3 3 3 3 3 3 3 3 3 3 3 3 3 2 1 1 0 0 1 1 1 1 1 0 1 1 1 1 2 2 2 2 2 2
2 3 2 2 3 4 5 3 2 3 4 4 3 2 3 3 3 4 3 3 3 3 2 2 2 2 2 3 3 2 1 1 0 1 1 1 1 1 1 2 2 1 1 2 2 2 2 2 2
1 1 2 3 3 3 4 3 2 2 2 3 3 3 3 3 3 3 3 3 2 2 2 2 3 2 2 2 2 2 2 1 1 1 1 2 2 1 2 2 2 2 2 2 3 3 3 3 2
0 1 1 2 4 3 4 5 1 3 3 3 3 4 4 4 3 3 3 3 3 3 3 3 2 2 2 1 1 2 1 1 1 1 1 2 2 2 2 2 2 2 2 2 3 4 3 4 4
Wind_Direction
310 289 269 260 242 230 236 238 251 348 312 14 3 356 35 40 35 95 90 40 34 61 80 85 81 92 101 115 118 120 118 121 120 118 116 113 111 108 105 104 101 100 100 100 98 96 96 95 93
302 294 268 239 236 234 234 224 213 357 45 44 21 11 49 65 62 83 56 24 33 56 75 73 71 90 95 112 121 124 122 119 123 120 117 115 113 111 109 107 104 101 100 99 99 98 97 97 96
288 266 256 234 231 237 237 90 101 107 83 58 45 35 33 53 64 64 40 36 44 52 64 61 69 77 95 99 119 127 123 118 119 121 117 117 116 113 110 106 105 102 101 100 99 99 99 99 99
290 243 240 239 237 244 258 48 68 109 109 74 56 82 76 49 43 57 53 52 55 50 58 61 61 65 80 97 102 125 124 119 115 117 119 118 117 115 110 105 103 102 103 103 102 100 100 102 100
251 251 226 229 238 243 271 13 358 154 142 107 68 89 81 66 59 64 55 58 61 53 55 57 60 64 67 83 98 106 121 119 116 113 122 122 118 114 112 108 105 103 104 104 104 104 101 102 101
258 242 232 232 235 240 274 335 322 308 5 82 111 190 103 70 55 55 52 55 59 60 59 60 54 59 60 71 87 92 102 117 117 113 119 122 119 114 116 113 109 106 104 105 105 103 101 100 99
277 257 246 246 247 251 261 3 17 352 13 5 332 192 126 58 39 52 58 59 59 58 57 57 50 54 58 61 74 84 89 102 114 115 115 120 119 118 119 116 113 110 108 107 105 105 101 100 99
296 285 250 250 253 257 23 29 15 8 357 13 5 25 106 40 36 45 58 64 63 58 53 47 44 43 51 60 71 78 82 86 107 112 108 117 122 122 122 118 117 115 114 112 109 106 105 100 97
287 247 244 257 275 327 49 15 8 22 15 18 27 30 46 62 66 57 43 52 54 54 53 43 34 35 43 58 66 78 80 75 91 107 105 110 120 123 123 121 120 118 118 118 115 110 107 103 99
285 239 248 317 358 11 21 5 356 23 337 331 30 43 58 63 73 81 62 50 48 42 41 42 33 29 38 48 57 70 81 78 75 95 104 103 114 122 121 121 121 120 118 119 119 118 115 109 108
314 254 274 347 19 16 353 345 350 276 305 341 29 61 52 66 64 65 64 56 53 45 34 29 28 30 37 39 49 49 63 67 70 78 89 87 91 102 109 116 118 120 120 119 123 123 119 115 114
224 290 296 317 353 344 329 317 324 312 331 7 21 52 70 70 58 54 46 31 24 37 30 21 27 25 33 44 49 49 52 54 57 71 82 84 85 92 100 114 130 135 136 131 131 132 127 118 113
233 242 301 328 1 340 331 293 287 283 6 22 16 21 52 41 31 45 36 25 18 22 32 19 22 26 28 41 47 50 53 61 64 73 77 85 87 92 99 102 117 131 134 134 134 123 110 103 93
265 269 297 288 277 274 283 272 259 260 111 138 311 3 30 39 34 25 21 12 360 9 39 32 23 22 31 40 45 48 56 81 77 71 70 81 91 95 103 102 103 105 117 133 128 106 95 84 83
251 254 260 256 244 222 290 267 222 215 185 222 229 328 37 31 25 24 7 2 352 348 12 37 27 25 29 37 44 55 60 83 78 76 77 74 83 95 105 116 105 108 123 116 110 104 95 89 81
243 242 243 228 220 192 188 258 232 133 149 209 212 185 73 35 17 7 7 8 356 353 359 14 14 32 29 30 45 47 60 81 79 82 81 73 79 92 96 101 108 113 120 114 117 115 105 97 91
231 259 268 277 201 191 213 255 247 149 176 228 200 190 85 21 8 6 9 6 357 1 6 2 9 42 39 28 37 54 74 85 89 90 81 77 82 96 95 95 97 102 105 101 112 115 119 116 107
294 294 286 287 267 268 251 258 266 268 221 245 255 236 207 23 357 5 11 7 3 14 17 8 359 14 37 49 43 51 93 74 78 89 89 87 85 97 99 95 98 102 107 108 107 112 108 122 126
292 287 286 292 298 289 265 271 272 276 256 242 250 268 14 4 15 41 47 32 23 17 13 4 9 354 32 94 99 120 130 115 89 74 91 91 92 108 107 91 101 103 118 122 117 115 118 112 116
287 285 290 298 310 294 275 278 274 252 229 228 253 355 352 3 28 27 27 48 56 27 3 2 9 353 302 198 156 164 147 153 120 75 82 91 87 105 124 106 113 116 123 119 116 116 118 121 118
290 277 293 297 301 265 270 274 229 204 134 40 36 29 35 46 29 21 24 23 27 21 360 358 0 2 340 343 85 107 107 107 96 102 107 76 93 95 127 127 125 126 128 138 141 131 124 155 167
293 311 299 293 295 275 262 280 265 224 285 349 332 2 37 59 46 34 27 20 16 9 9 7 3 3 351 31 133 148 137 142 190 184 144 71 82 83 120 123 127 136 133 143 154 126 132 154 170
290 308 286 275 268 281 252 251 277 178 261 270 295 2 34 56 55 39 32 28 23 22 15 3 359 352 351 351 177 149 130 138 117 134 122 118 68 63 87 123 126 139 138 145 150 145 148 167 175
304 298 275 252 248 264 239 227 282 276 289 299 327 21 33 50 48 37 30 27 26 30 19 7 1 346 358 1 114 134 140 135 126 102 129 121 134 56 31 86 112 138 138 147 166 158 164 173 190
332 339 338 315 244 252 213 231 264 14 19 46 75 31 36 41 38 26 15 19 21 24 16 8 358 1 359 8 33 113 144 154 163 172 163 151 168 164 193 39 101 114 112 134 148 142 172 180 192
312 334 328 283 284 303 292 253 257 49 39 34 42 58 46 26 14 9 3 16 12 11 9 10 355 354 359 2 4 359 353 160 168 174 177 183 202 197 228 153 99 130 151 163 147 142 168 161 175
323 303 292 279 279 276 263 244 240 25 25 15 15 29 10 351 355 354 356 3 3 3 1 2 354 355 1 3 3 345 336 43 178 157 160 184 198 219 239 153 143 167 187 174 160 171 179 174 189
315 319 323 282 300 287 281 270 307 335 340 348 355 343 327 333 344 343 349 350 352 352 348 358 3 351 350 356 354 355 344 353 290 185 206 214 209 210 183 167 170 176 187 184 166 179 180 182 202
322 322 297 269 260 279 294 285 16 13 360 344 337 331 325 328 334 337 332 327 332 341 346 359 0 357 354 358 349 354 342 325 303 254 239 234 217 181 180 179 180 183 192 194 190 192 191 195 201
32 291 261 250 274 262 275 277 3 40 35 3 341 335 337 331 330 323 321 324 330 344 352 356 352 344 334 335 330 319 315 315 298 303 281 265 231 209 194 180 191 200 206 208 205 204 206 204 204
Height
1502 1503 1505 1508 1510 1510 1505 1498 1494 1495 1497 1500 1501 1500 1502 1507 1512 1522 1521 1519 1518 1518 1520 1521 1523 1525 1527 1529 1530 1532 1533 1535 1536 1537 1539 1540 1541 1542 1543 1544 1545 1546 1547 1547 1548 1549 1549 1550 1551
1502 1503 1507 1507 1509 1510 1502 1496 1497 1498 1500 1501 1502 1503 1505 1510 1514 1517 1518 1518 1518 1519 1520 1521 1523 1525 1527 1529 1531 1532 1534 1535 1537 1538 1539 1541 1542 1543 1544 1545 1546 1547 1548 1549 1550 1550 1551 1552 1552
1502 1504 1507 1505 1504 1504 1499 1495 1497 1499 1501 1502 1504 1506 1509 1514 1516 1517 1518 1518 1518 1519 1520 1521 1523 1525 1527 1529 1531 1533 1534 1536 1537 1539 1540 1542 1543 1544 1545 1546 1547 1548 1549 1550 1551 1552 1552 1553 1554
1503 1505 1505 1505 1503 1497 1495 1496 1497 1499 1502 1504 1506 1509 1513 1517 1517 1517 1518 1518 1518 1519 1520 1521 1523 1525 1527 1529 1531 1533 1534 1536 1538 1539 1541 1542 1544 1545 1546 1547 1548 1549 1550 1551 1552 1553 1554 1555 1556
1503 1504 1504 1504 1499 1496 1495 1497 1498 1500 1502 1505 1507 1510 1514 1517 1516 1517 1517 1518 1518 1519 1520 1521 1523 1525 1526 1529 1530 1532 1534 1536 1538 1539 1541 1543 1544 1545 1546 1548 1549 1550 1551 1552 1553 1554 1555 1556 1557
1504 1501 1503 1502 1497 1495 1497 1499 1500 1501 1503 1505 1508 1510 1515 1516 1516 1516 1517 1518 1518 1519 1519 1521 1523 1524 1526 1528 1530 1532 1534 1536 1537 1539 1541 1543 1544 1545 1547 1548 1549 1550 1552 1553 1554 1555 1556 1557 1558
1504 1501 1500 1497 1497 1497 1499 1500 1502 1503 1505 1508 1509 1511 1514 1515 1515 1516 1517 1518 1518 1519 1519 1521 1522 1524 1526 1527 1529 1531 1533 1535 1537 1539 1540 1542 1544 1545 1547 1548 1549 1550 1552 1553 1554 1556 1557 1558 1559
1502 1502 1499 1498 1498 1499 1501 1503 1505 1506 1508 1509 1510 1511 1514 1515 1515 1515 1516 1517 1517 1518 1518 1520 1522 1523 1525 1527 1528 1530 1532 1534 1536 1538 1540 1542 1543 1545 1546 1547 1549 1551 1552 1553 1555 1556 1557 1558 1560
1502 1505 1503 1500 1500 1501 1503 1505 1507 1509 1509 1510 1512 1514 1514 1514 1514 1515 1515 1516 1517 1517 1518 1519 1521 1522 1524 1525 1527 1529 1531 1533 1535 1537 1539 1541 1543 1544 1546 1547 1549 1550 1552 1553 1555 1556 1557 1559 1560
1503 1505 1504 1502 1503 1504 1505 1507 1509 1510 1510 1511 1512 1513 1513 1513 1514 1514 1514 1515 1515 1516 1517 1518 1520 1521 1523 1524 1526 1528 1530 1532 1534 1536 1538 1540 1542 1543 1545 1547 1548 1550 1552 1553 1554 1556 1557 1559 1560
1504 1506 1504 1505 1505 1506 1507 1508 1510 1510 1511 1512 1512 1512 1512 1513 1513 1514 1514 1514 1515 1515 1516 1517 1519 1520 1522 1523 1525 1526 1529 1530 1533 1535 1537 1539 1540 1542 1544 1546 1547 1549 1551 1552 1554 1556 1557 1558 1560
1506 1506 1506 1507 1507 1507 1508 1509 1510 1510 1512 1512 1512 1512 1512 1512 1512 1513 1513 1514 1514 1515 1515 1516 1518 1519 1520 1522 1523 1525 1527 1528 1531 1533 1535 1537 1539 1541 1543 1545 1546 1548 1550 1552 1553 1555 1557 1558 1560
1506 1507 1508 1508 1508 1509 1509 1510 1511 1510 1511 1511 1511 1511 1512 1512 1512 1512 1513 1513 1514 1514 1514 1515 1516 1517 1519 1520 1522 1523 1525 1527 1529 1531 1533 1535 1537 1539 1541 1543 1545 1547 1549 1551 1552 1554 1556 1557 1559
1507 1507 1508 1508 1508 1508 1509 1509 1510 1509 1510 1510 1509 1510 1510 1511 1511 1511 1511 1512 1512 1512 1513 1514 1515 1516 1517 1518 1520 1522 1523 1525 1527 1530 1532 1534 1536 1537 1539 1541 1544 1546 1548 1549 1551 1553 1555 1556 1558
1507 1507 1508 1507 1507 1507 1508 1508 1508 1508 1508 1508 1508 1508 1509 1509 1509 1509 1510 1510 1510 1511 1512 1513 1514 1515 1516 1517 1518 1520 1521 1524 1525 1528 1530 1532 1534 1536 1537 1540 1542 1544 1546 1548 1550 1552 1554 1555 1556
1506 1507 1508 1505 1505 1505 1510 1509 1506 1506 1506 1507 1507 1507 1507 1508 1508 1508 1508 1508 1509 1509 1510 1511 1512 1513 1514 1515 1517 1518 1520 1521 1523 1525 1528 1530 1532 1534 1536 1538 1540 1542 1544 1547 1548 1550 1551 1553 1555
1507 1509 1507 1505 1503 1504 1507 1507 1505 1505 1505 1505 1506 1506 1506 1506 1506 1506 1506 1506 1507 1508 1508 1509 1510 1511 1512 1513 1515 1516 1518 1520 1521 1523 1525 1528 1530 1532 1534 1536 1538 1540 1543 1545 1547 1548 1550 1551 1553
1513 1510 1507 1506 1504 1504 1506 1505 1503 1504 1504 1504 1504 1504 1504 1504 1504 1504 1504 1504 1505 1506 1507 1507 1508 1509 1510 1511 1513 1514 1516 1518 1519 1521 1523 1526 1528 1530 1532 1534 1536 1539 1541 1543 1545 1546 1548 1549 1551
1511 1511 1510 1507 1504 1505 1505 1503 1502 1502 1502 1502 1502 1502 1502 1502 1502 1502 1503 1503 1503 1504 1505 1505 1506 1507 1508 1509 1510 1511 1513 1515 1517 1519 1521 1524 1526 1528 1530 1532 1534 1537 1539 1541 1543 1544 1546 1547 1549
1511 1511 1510 1507 1504 1505 1504 1501 1500 1500 1501 1500 1500 1500 1500 1500 1501 1501 1501 1501 1502 1502 1503 1503 1504 1505 1506 1507 1508 1509 1511 1513 1515 1517 1519 1521 1524 1526 1528 1530 1532 1535 1537 1539 1540 1542 1543 1545 1547
1510 1512 1511 1510 1507 1503 1504 1501 1498 1498 1498 1499 1500 1500 1499 1499 1499 1500 1500 1500 1500 1500 1501 1501 1502 1502 1504 1506 1506 1508 1510 1511 1513 1515 1517 1519 1522 1524 1526 1528 1530 1532 1534 1536 1538 1540 1541 1543 1545
1513 1510 1510 1509 1511 1509 1505 1509 1497 1497 1498 1498 1499 1499 1498 1499 1499 1499 1499 1499 1499 1499 1499 1499 1500 1501 1502 1503 1504 1506 1506 1508 1510 1513 1515 1518 1520 1522 1523 1526 1528 1530 1532 1534 1536 1537 1539 1541 1542
1514 1510 1509 1508 1510 1510 1505 1508 1501 1497 1498 1498 1499 1499 1498 1498 1498 1498 1498 1498 1497 1497 1498 1497 1498 1499 1500 1501 1501 1503 1504 1506 1509 1510 1512 1515 1517 1519 1521 1523 1525 1527 1530 1532 1534 1535 1537 1538 1539
1513 1510 1507 1507 1509 1513 1503 1505 1501 1499 1497 1498 1498 1498 1498 1498 1497 1497 1497 1497 1497 1496 1496 1496 1496 1497 1498 1498 1499 1500 1502 1504 1506 1508 1509 1512 1514 1516 1518 1521 1522 1524 1527 1529 1531 1532 1534 1536 1537
1516 1516 1516 1514 1512 1506 1499 1502 1504 1500 1498 1497 1498 1498 1497 1497 1497 1496 1496 1496 1495 1495 1495 1495 1495 1494 1495 1496 1496 1498 1500 1502 1503 1505 1507 1509 1511 1513 1515 1517 1519 1521 1523 1526 1528 1529 1531 1532 1534
1519 1520 1526 1525 1515 1506 1501 1504 1503 1500 1498 1497 1497 1497 1497 1497 1496 1496 1495 1495 1494 1494 1494 1493 1493 1493 1493 1493 1494 1496 1497 1499 1501 1503 1504 1506 1508 1510 1512 1514 1516 1518 1520 1522 1524 1526 1528 1529 1531
1521 1522 1522 1525 1518 1517 1506 1500 1500 1500 1499 1499 1498 1498 1498 1497 1497 1496 1495 1495 1494 1493 1492 1492 1491 1491 1491 1492 1493 1494 1495 1496 1498 1500 1502 1504 1505 1507 1509 1510 1512 1514 1517 1519 1520 1522 1524 1525 1527
1524 1523 1524 1524 1522 1515 1503 1498 1503 1504 1503 1500 1499 1499 1498 1497 1496 1495 1494 1494 1493 1492 1491 1490 1490 1490 1489 1490 1491 1491 1492 1493 1495 1497 1499 1501 1503 1504 1506 1507 1509 1511 1513 1515 1517 1518 1520 1522 1523
1527 1526 1526 1523 1520 1518 1513 1509 1504 1504 1503 1502 1500 1499 1498 1497 1495 1494 1494 1493 1492 1491 1490 1489 1488 1488 1488 1488 1489 1490 1491 1492 1493 1494 1496 1498 1499 1500 1502 1504 1505 1507 1509 1511 1513 1514 1516 1517 1519
1525 1527 1529 1530 1524 1519 1517 1514 1504 1502 1502 1501 1500 1499 1498 1497 1495 1494 1493 1492 1490 1489 1488 1487 1487 1487 1487 1487 1487 1488 1488 1489 1490 1491 1493 1494 1496 1498 1499 1500 1502 1504 1506 1508 1509 1509 1511 1513 1514